STARLINK-2122, 47400

Orbit data source: Space-Track

STARLINK-2122, 47400 is a payload satellite owned by SpaceX/Seattle (US) in LEO that was launched on Wed, 20 Jan 2021 UTC via an FALCON 9 launch vehicle from the Air Force Eastern Test Range (AFETR). Payload-class satellites include a variety of spacecraft equipped with specific instruments for various scientific and technological missions. These include communications satellites like Starlink; space stations such as the ISS; scientific satellites like the Hubble; Earth observation satellites from companies like Planet Labs, Umbra, and HawkEye 360; GPS; miniature CubeSats for education and research; and military/defense satellites.

Loading next visibility...
Identifier
47400, 2021-005BD
Orbit
LEO
Country
Flag of USUS
Related business
Manufacturer
SpaceX/Seattle
Mission
Operational Commercial Communications
Bus & Motor
STARLINK, Unknown motor
Mass
260 kg wet, ~248 kg dry
Launch date (UTC)
2021-01-20 (5 years ago)
Launch vehicle
FALCON 9
Launch site
Air Force Eastern Test Range (AFETR)
Object type
Payload
Rocket body
Debris
Shape & HBR
Box + 1 Pan, 10.1 m
Radar Cross Section
13.562 m², Large (>1 m²)

Expand to show TLE details & history
Last TLE update: 3 days ago

TLE from 3 days ago
0 STARLINK-2122
1 47400U 21005BD  26170.51109403  .00002097  00000-0  79338-4 0  9994
2 47400  53.1610 259.8406 0001067  60.5609 299.5499 15.31690250299321
Epoch: 2026-06-19T12:15Z
TLE epoch observation values (Epoch: 2026-06-19T12:15:58.524Z)
Latitude
0.00001°
Longitude
168.10773°
Altitude
471.309 km
Speed
7.632 km/s
True Right ascension
17h 19m 21s
True Declination
0° 00' 00"
Sunlit
Object was in full shadow at epoch
Visualization orbit readout
Latitude
Unknown
Longitude
Unknown
Altitude
Unknown
Speed
Unknown
Apparent Right ascension
Unknown
Apparent Declination
Unknown
Sunlit
N/A
Visualization observer readout
Local Sidereal Time
21:29:58
Azimuth
Unknown
Elevation
Unknown
Doppler factor
Unknown
Orbital elements
Apogee altitude
471.756 km
Perigee altitude
470.295 km
Semi-major axis
6,849.162 km
Eccentricity
0.00011
Inclination
53.161°
RAAN
259.8406°
Arg. of periapsis
60.5609°
True anomaly
299.53926°
Mean anomaly
299.5499°
Eccentric anomaly
299.54458°
Mean motion
3.82901 °/min
Orbital period
94.02 mins
BSTAR
0.000079338
Loading maneuver chart data...
Computing Atmospheric mass density...

Documentation

Showing up to 5 results
|